Lexington Weather

Lexington, Massachusetts, USA

34°F
4/16/2021 11:12am 
  • Lexington Conditions: Light snow, Mist, Overcast
  • Temperature: 34.0°F / 1.1°C 
  • Dew Point: 32.7°F 
  • Relative Humidity: 95
  • Wind: Wind from WNW WNW 1 mph, 10-min avg: 1 mph, gust: 4 mph
  • Barometer: 29.46 inFalling 0.03  inHg/hr Falling Slowly
  • Visibility: 1 mile
  • Snow Today: 1.7 in
  •   

Regional Weather Roundup
for Boston / Norton, MA

        
000
ASUS41 KBOX 152305
RWRBOX

REGIONAL WEATHER ROUNDUP
NATIONAL WEATHER SERVICE BOSTON/NORTON MA
700 PM EDT THU APR 15 2021

NOTE:  "FAIR" INDICATES FEW OR NO CLOUDS BELOW 12,000 FEET WITH NO 
SIGNIFICANT WEATHER AND/OR OBSTRUCTIONS TO VISIBILITY.

MAZALL-160000-
EASTERN MASSACHUSETTS
  
CITY           SKY/WX    TMP DP  RH WIND       PRES   REMARKS
BOSTON         LGT RAIN  46  38  73 E16       29.78F                  
BEVERLY        NOT AVBL                                               
LAWRENCE       LGT RAIN  45  36  70 NE6       29.80F                  
BEDFORD        LGT RAIN  44  36  73 E14       29.75F                  
BLUE HILL        N/A     43  31  62 E10       29.73F                  
NORWOOD        LGT RAIN  47  32  56 E8        29.76F                  
MARSHFIELD     CLOUDY    46  37  71 E10G17    29.77S                  
PLYMOUTH       CLOUDY    46  33  60 E10       29.75F                  
TAUNTON        LGT RAIN  48  28  46 E8        29.75S                  
NEW BEDFORD    CLOUDY    46  34  62 E10       29.74S                  
$$

MAZALL-160000-
CAPE COD AND THE ISLANDS
  
CITY           SKY/WX    TMP DP  RH WIND       PRES   REMARKS
FALMOUTH       MOCLDY    45  34  65 SE13G21   29.75                   
HYANNIS        CLOUDY    46  36  68 SE9       29.74S                  
CHATHAM        CLOUDY    45  36  70 E10G18    29.77F                  
PROVINCETOWN   CLOUDY    45  37  73 E10       29.78F                  
NANTUCKET      CLOUDY    44  36  73 E18       29.74S                  
MARTHAS VNYRD  LGT RAIN  45  36  70 E12       29.73F                  
$$
 
MAZALL-160000-
CENTRAL AND WESTERN MASSACHUSETTS
  
CITY           SKY/WX    TMP DP  RH WIND       PRES   REMARKS
WORCESTER      LGT RAIN  41  36  82 E10       29.72S                  
FITCHBURG      LGT RAIN  42  37  82 NE5       29.77S                  
ORANGE         LGT RAIN  42  39  89 NE6       29.74S                  
SPRINGFIELD    NOT AVBL                                               
WESTFIELD      RAIN      42  39  89 N6        29.72S                  
NORTH ADAMS    LGT RAIN  42  41  96 E3        29.73R                  
PITTSFIELD     RAIN      41  37  86 E8G22     29.68R FOG              
$$
 
RIZALL-160000-
RHODE ISLAND
  
CITY           SKY/WX    TMP DP  RH WIND       PRES   REMARKS
PROVIDENCE     LGT RAIN  45  36  70 SE8       29.74S                  
NEWPORT        RAIN      43  39  86 E12       29.72F FOG              
BLOCK ISLAND   LGT RAIN  41  38  89 E17G24    29.70F FOG              
SMITHFIELD     LGT RAIN  42  38  85 CALM      29.73F                  
WESTERLY       RAIN      41  39  93 E14G22    29.70F FOG              
$$
 
CTZALL-160000-
CONNECTICUT
  
CITY           SKY/WX    TMP DP  RH WIND       PRES   REMARKS
BRADLEY INTL   RAIN      42  38  85 NW5       29.71F FOG              
HARTFORD       RAIN      42  37  82 NE7       29.70S                  
BRIDGEPORT     LGT RAIN  45  43  93 E21       29.66F                  
DANBURY        LGT RAIN  48  42  80 E3        29.69R                  
GROTON         LGT RAIN  43  39  86 E13G24    29.68F                  
NEW HAVEN      LGT RAIN  45  43  93 N8G23     29.67R FOG              
CHESTER        LGT RAIN  41  41 100 E10       29.67S                  
MERIDEN        RAIN      44  40  85 NE8       29.67F                  
WILLIMANTIC    RAIN      44  41  89 E5        29.70F FOG              
OXFORD         RAIN      44  44 100 E7        29.67R FOG              
$$

MEZ002-015-021-024-NHZ003-005-008-011-012-014-VTZ005-008-160000-
NORTHERN NEW ENGLAND
  
CITY           SKY/WX    TMP DP  RH WIND       PRES   REMARKS
PORTLAND ME    MOCLDY    45  36  70 E7        29.84S                  
BANGOR ME      MOCLDY    49  18  29 SE12      29.85R                  
CONCORD NH     LGT RAIN  42  36  79 E8        29.79F                  
MANCHESTER NH  LGT RAIN  44  37  76 NE6       29.78F                  
NASHUA NH      LGT RAIN  43  39  86 E7        29.79F                  
PORTSMOUTH NH  NOT AVBL                                               
JAFFREY NH     LGT RAIN  39  36  89 VRB3      29.75S                  
KEENE NH       LGT RAIN  42  35  76 VRB7      29.75S                  
BURLINGTON VT  LGT RAIN  43  38  82 SE7       29.70R                  
MT. WASHINGTON NOT AVBL                                               
$$

NYZ052-076-160000-
EASTERN NEW YORK
  
CITY           SKY/WX    TMP DP  RH WIND       PRES   REMARKS
ALBANY         RAIN      41  41 100 NW6       29.72R FOG              
NEW YORK CITY  LGT RAIN  50  45  83 N12       29.67R                  
$$
 
ANZALL-160000-
MARINE OBSERVATIONS
  
STATION/POSITION TIME  TEMP    WIND        PRES    VSBY  WAVE
                       AIR SEA DIR/SP/G                  HT/PER
                 (UTC) (F)     (DEG/KT/KT) (MB)    (MI)  (FT/S)
BOSTON BUOY      2250   44 45   80/ 12/ 16 1008.9F         5/11
BUZZARDS BAY     2200          100/ 18/ 19 1007.8F
NANTUCKET SOUND  2250      47                N/A           2/ 4
MASS BAY-STELLWA 2204   45     100/ 10/ 12 1008.3S  1 7/8  6/11
ISLE OF SHOALS   2200   44      90/  9/ 10 1009.3F
S OF BLOCK IS    2226      44                N/A           6/13
$$

......................KEY.........................
  SKY/WX - SKY CONDITION/PRESENT WEATHER
  TMP    - TEMPERATURE IN FAHRENHEIT
  DWPT   - DEWPOINT IN FAHRENHEIT
  RH     - RELATIVE HUMIDITY IN PERCENT
  WIND   - DIRECTION AND SPEED IN MPH
  PRES   - MEAN SEA LEVEL PRESSURE IN INCHES OF HG
  WCI    - WIND CHILL INDEX
  VSB    - VISIBILITY IN MILES
  HX     - HEAT INDEX
  TC     - TEMPERATURE IN CELSIUS
  VRB    - VARIABLE WIND DIRECTION
  N/A    - NOT AVAILABLE
  
      

Other recent Regional Weather Roundups

Fri Apr 16, 10:05am

Fri Apr 16, 9:04am

Fri Apr 16, 8:04am

Fri Apr 16, 7:04am

Fri Apr 16, 6:04am

Fri Apr 16, 5:04am

Fri Apr 16, 4:04am

Fri Apr 16, 3:04am

Fri Apr 16, 2:04am

Fri Apr 16, 1:04am

Fri Apr 16, 12:04am

Thu Apr 15, 11:05pm

Thu Apr 15, 10:04pm

Thu Apr 15, 9:04pm

Thu Apr 15, 8:04pm

Thu Apr 15, 6:04pm

Thu Apr 15, 5:05pm

Thu Apr 15, 4:04pm

Thu Apr 15, 3:05pm

Thu Apr 15, 2:04pm

Thu Apr 15, 1:05pm

Thu Apr 15, 12:04pm

Thu Apr 15, 11:04am

Thu Apr 15, 10:05am

Thu Apr 15, 9:04am

Thu Apr 15, 8:04am

Thu Apr 15, 7:04am

Thu Apr 15, 6:04am

Thu Apr 15, 5:04am

Thu Apr 15, 4:04am

Thu Apr 15, 3:04am

Thu Apr 15, 2:04am

Thu Apr 15, 1:04am

Thu Apr 15, 12:04am

Wed Apr 14, 11:04pm

Wed Apr 14, 10:04pm

Wed Apr 14, 9:04pm

Wed Apr 14, 8:04pm

Wed Apr 14, 7:04pm

Wed Apr 14, 6:04pm

Wed Apr 14, 5:05pm

Wed Apr 14, 4:04pm

Wed Apr 14, 3:05pm

Wed Apr 14, 2:04pm

Wed Apr 14, 1:05pm

Wed Apr 14, 12:04pm

Wed Apr 14, 11:04am

Wed Apr 14, 10:04am

Wed Apr 14, 9:04am

Wed Apr 14, 8:04am

Wed Apr 14, 7:04am

Wed Apr 14, 6:04am

Wed Apr 14, 5:04am

Wed Apr 14, 4:04am

Wed Apr 14, 3:04am

Wed Apr 14, 2:04am

Wed Apr 14, 1:04am

Wed Apr 14, 12:04am

Tue Apr 13, 11:04pm

Tue Apr 13, 10:05pm

Tue Apr 13, 9:05pm

Tue Apr 13, 8:05pm

Tue Apr 13, 7:04pm

Tue Apr 13, 6:04pm

Tue Apr 13, 5:05pm

Tue Apr 13, 4:04pm

Tue Apr 13, 3:04pm

Tue Apr 13, 2:05pm

Tue Apr 13, 1:04pm

Tue Apr 13, 12:05pm

Tue Apr 13, 11:05am

Tue Apr 13, 10:04am

Tue Apr 13, 9:04am

Tue Apr 13, 8:04am

Tue Apr 13, 7:04am

Tue Apr 13, 6:04am

Tue Apr 13, 5:04am

Tue Apr 13, 4:04am

Tue Apr 13, 3:04am

Tue Apr 13, 2:04am

Tue Apr 13, 1:04am

Tue Apr 13, 12:05am

Mon Apr 12, 11:04pm

Mon Apr 12, 10:04pm

Mon Apr 12, 9:04pm

Mon Apr 12, 8:04pm

Mon Apr 12, 7:05pm

Mon Apr 12, 6:04pm

Mon Apr 12, 5:04pm

Mon Apr 12, 4:04pm

Mon Apr 12, 3:05pm

Mon Apr 12, 2:04pm

Mon Apr 12, 1:05pm

Mon Apr 12, 12:04pm

Mon Apr 12, 11:04am

Mon Apr 12, 10:04am

Mon Apr 12, 9:04am

Mon Apr 12, 8:04am

Mon Apr 12, 7:04am

Mon Apr 12, 6:04am

Mon Apr 12, 5:04am

Mon Apr 12, 4:04am

Mon Apr 12, 3:04am

Mon Apr 12, 2:04am

Mon Apr 12, 1:05am

Mon Apr 12, 12:04am

Sun Apr 11, 11:04pm

Sun Apr 11, 10:04pm

Sun Apr 11, 9:04pm

Sun Apr 11, 8:04pm

Sun Apr 11, 7:04pm

Sun Apr 11, 6:05pm

Sun Apr 11, 5:05pm

Sun Apr 11, 4:04pm

Sun Apr 11, 3:05pm

Sun Apr 11, 2:05pm

Sun Apr 11, 1:05pm

Sun Apr 11, 12:04pm

Sun Apr 11, 11:05am

Sun Apr 11, 10:05am

Sun Apr 11, 9:04am

Sun Apr 11, 8:04am

Sun Apr 11, 7:04am

Sun Apr 11, 6:04am

Sun Apr 11, 5:04am

Sun Apr 11, 4:04am

Sun Apr 11, 3:04am

Sun Apr 11, 2:04am

Sun Apr 11, 1:05am

Sun Apr 11, 12:04am

Sat Apr 10, 11:05pm

Sat Apr 10, 10:04pm

Sat Apr 10, 9:04pm

Sat Apr 10, 8:04pm

Sat Apr 10, 7:05pm

Sat Apr 10, 6:04pm

Sat Apr 10, 5:04pm

Sat Apr 10, 4:04pm

Sat Apr 10, 3:04pm

Sat Apr 10, 2:05pm

Sat Apr 10, 1:04pm

Sat Apr 10, 12:04pm

Sat Apr 10, 11:04am

Sat Apr 10, 10:04am

Sat Apr 10, 9:04am

Sat Apr 10, 8:04am

Sat Apr 10, 7:04am

Sat Apr 10, 6:04am

Sat Apr 10, 5:04am

Sat Apr 10, 4:04am

Sat Apr 10, 3:04am

Sat Apr 10, 2:04am

Sat Apr 10, 1:05am

Sat Apr 10, 12:04am

Fri Apr 9, 11:04pm

Fri Apr 9, 10:05pm

Fri Apr 9, 9:04pm

Fri Apr 9, 8:05pm

Fri Apr 9, 7:05pm

Fri Apr 9, 6:04pm

Fri Apr 9, 5:04pm

Fri Apr 9, 4:05pm

Fri Apr 9, 3:05pm

Fri Apr 9, 2:04pm

Fri Apr 9, 1:04pm

Fri Apr 9, 12:04pm

Fri Apr 9, 11:05am

Meta data:

ID: 50e9ecbf-ff8b-48b8-8f77-20b767680292
Link: https://api.weather.gov/products/50e9ecbf-ff8b-48b8-8f77-20b767680292